Location: Newark
(48.3831°N, 4.1956°E)
Time: 10:07:45
(UTC+00:00)

Envisat - Pass Details

Date: 16 November 2019
Orbit: 764 x 766 km, 98.1° (Epoch: 07 December)

Event Time Altitude Azimuth Distance (km) Brightness Sun altitude
Rises 06:09:16 0° 19° (NNE) 3,243 6.2 -7.3°
Reaches altitude 10° 06:11:42 10° 26° (NNE) 2,312 5.6 -6.9°
Maximum altitude 06:16:34 44° 98° (E) 1,060 4.4 -6.1°
Drops below altitude 10° 06:21:23 10° 170° (S) 2,295 6.0 -5.4°
Sets 06:23:46 0° 177° (S) 3,216 6.6 -5.0°
